FENGYUN 1C DEB, 32334

Orbit data source: Space-Track

FENGYUN 1C DEB, 32334 is space debris in SSO originally from a launch on Mon, 10 May 1999 UTC launched from the Taiyaun Space Center, China (TSC). Fengyun 1C debris stems from the Chinese weather satellite Fengyun-1C, which was intentionally destroyed by a Chinese anti-satellite missile in 2007. This event dramatically increased the amount of space debris, with thousands of trackable fragments posing hazards to satellites and human spaceflight. The Fengyun 1C debris cloud has become a focal point in discussions about space sustainability and the need for international regulations to prevent the creation of new debris.

Loading next visibility...
Identifier
32334, 1999-025CYB
Orbit
SSO
Country
Flag of CNCN / PRC
Related business
Manufacturer
Unknown
Mission
Spacecraft
Bus & Motor
Unknown
Mass
Unknown
Launch date (UTC)
1999-05-10 (27 years ago)
Launch vehicle
Unknown
Launch site
Taiyaun Space Center, China (TSC)
Object type
Payload
Rocket body
Debris
Shape & HBR
Unknown shape, 0.1 m
Radar Cross Section
Small (<0.1 m²)

Expand to show TLE details & history
Last TLE update: 23 hours ago

TLE from 23 hours ago
0 FENGYUN 1C DEB
1 32334U 99025CYB 26145.14531989  .00000262  00000-0  19863-3 0  9998
2 32334  99.2300 206.6666 0067879 189.4831 170.5057 14.01866223962299
Epoch: 2026-05-25T03:29Z
TLE epoch observation values (Epoch: 2026-05-25T03:29:15.638Z)
Latitude
-0°
Longitude
-88.38587°
Altitude
938.873 km
Speed
7.358 km/s
True Right ascension
13h 46m 39s
True Declination
0° 00' 00"
Sunlit
Object was in full shadow at epoch
Visualization orbit readout
Latitude
Unknown
Longitude
Unknown
Altitude
Unknown
Speed
Unknown
Apparent Right ascension
Unknown
Apparent Declination
Unknown
Sunlit
N/A
Visualization observer readout
Local Sidereal Time
11:17:57
Azimuth
Unknown
Elevation
Unknown
Doppler factor
Unknown
Orbital elements
Apogee altitude
933.846 km
Perigee altitude
835.25 km
Semi-major axis
7,262.685 km
Eccentricity
0.00679
Inclination
99.23°
RAAN
206.6666°
Arg. of periapsis
189.4831°
True anomaly
170.63294°
Mean anomaly
170.5057°
Eccentric anomaly
170.56943°
Mean motion
3.50669 °/min
Orbital period
102.66 mins
BSTAR
0.00019863
Loading maneuver chart data...
Computing Atmospheric mass density...

Documentation

Showing up to 5 results
|